Portada
METAR-TAF:

METAR-TAF

Aeropuertos :

Tetuán, Marruecos

Aeropuerto Tétouan-Martil Sania Ramel

latitud: 35-35N, longitud: 005-20W, altitud: 10 m

Observación

El informe se hizo hace 1 hora y 17 minutos, a las 08:00 UTC
Viento 6 kt del este
Temperatura 16°C
Humedad 88%
Presión 1016 hPa
Visibilidad: 5000 m
Nubes dispersas a una altura de 1000 ft
Cielo nuboso a una altura de 1600 ft

METAR: GMTN 240800Z 09006KT 5000 SCT010 BKN016 16/14 Q1016 NOSIG

Hora: 10:17 (09:17 UTC)


TAF: falta

Observaciones y pronósticos meteorológicos de más de 4000 aeropuertos (mensajes METAR y TAF).

Los puntos amarillos y rojos representan las estaciones disponibles.

Ponga el ratón en el punto deseado para ver el nombre de la estación.

Haga clic para ver las observaciones y los pronósticos meteorológicos.

Para cambiar el mapa : haga clic en los botones verdes con una cruz de color negro para hacer un zoom, en el botón verde con un guión para alejar o en las flechas verdes para mapas adyacentes.


METAR-TAF: